sat.trackr.live / text

‹ back to catalog

STARLINK-2409

NORAD 47824 · 2021-018AP

PAYLOAD ACTIVE UNKNOWN

§ Identity

Operator
Country
US
Launch date
2021-03-11
Launch site
AFETR
Launch vehicle
Mass (kg)
RCS (m²)

Purposes: comms

External: N2YO · Heavens-Above · Gunter

§ Orbital elements

Epoch: 2026-09-20T04:25:39.572256Z

Period
94.02 min
Inclination
53.1597°
Eccentricity
0.0001489
Mean motion
15.31639455 rev/d
Perigee alt
469.9 km
Apogee alt
471.9 km
Semi-major
6,849.1 km
B*
5.1935e-4
RAAN
73.5748°
Arg perigee
92.0830°
Mean anomaly
268.0342°
Rev number
30,628

§ Raw data

STARLINK-24091 47824U 21018AP  26263.18448579  .00015755  00000+0  51935-3 0  99902 47824  53.1597  73.5748 0001489  92.0830 268.0342 15.31639455306281

JSON: /api/v1/satellites/47824 · /tle

For live sub-satellite position, see the globe view (requires WebGL).

§ Visibility from observer

Set your observer location to see the next 7 days of passes ≥ 10°. The values pass through the URL so the page stays shareable.

No JS? Fill the form by hand. The geolocation button needs JavaScript.